Regional Weather Roundup
Issued by NWS Cleveland, OH

Home | Current Version | Previous Version | Text Only | Print | Product List | Glossary Off
Versions: 1 2 3 4 5 6 7 8 9 10 11 12 13 14 15 16 17 18 19 20 21 22 23 24 25 26 27 28 29 30 31 32 33 34 35 36 37 38 39 40 41 42 43 44 45 46 47 48 49 50

000
ASUS41 KCLE 231510
RWRCLE
OHIO REGIONAL WEATHER ROUNDUP
NATIONAL WEATHER SERVICE CLEVELAND, OH
1000 AM EST THU FEB 23 2017

NOTE: "FAIR" INDICATES FEW OR NO CLOUDS BELOW 12,000 FEET WITH NO
SIGNIFICANT WEATHER AND/OR OBSTRUCTIONS TO VISIBILITY.

OHZ001>008-015>018-024>027-034-035-043-044-231600-
   NORTHWEST OHIO

CITY           SKY/WX    TMP DP  RH WIND       PRES   REMARKS
DEFIANCE       MOSUNNY   57  51  80 SW8       29.75S
FINDLAY        CLOUDY    60  53  77 W15       29.75S
TOLEDO EXPRESS MOSUNNY   58  54  86 SW15      29.73S
TOLEDO EXEC    CLOUDY    59  54  83 SW15      29.74S
LIMA           CLOUDY    58  56  93 SW12      29.77S
$$

OHZ009>014-019>023-028>033-038-089-231600-
   NORTHEAST OHIO

CITY           SKY/WX    TMP DP  RH WIND       PRES   REMARKS
CLE-HOPKINS    CLOUDY    62  53  72 SW15      29.77S
CLE-LAKEFRONT  CLOUDY    59  52  77 SW15      29.73S
CUY CO. ARPT   CLOUDY    63  55  77 SW9       29.75S
LORAIN-ELYRIA  CLOUDY    59  52  77 W16       29.76R
ASHTABULA      CLOUDY    60  56  86 S13G20    29.75S
AKRON-CANTON   CLOUDY    60  54  80 SW16      29.79S
WOOSTER        CLOUDY    60  55  83 SW10      29.79S
MANSFIELD      CLOUDY    59  55  87 SW14G21   29.78S
YOUNGSTOWN     CLOUDY    59  54  83 SW9G17    29.79S
$$

OHZ042-051>053-060>062-070>072-077>081-231600-
  SOUTHWEST OHIO

CITY           SKY/WX    TMP DP  RH WIND       PRES   REMARKS
CINC-COVINGTON MOSUNNY   62  57  83 S17       29.81F
CINC-LUNKEN    MOSUNNY   63  58  83 S14       29.81F
HAMILTON       MOSUNNY   65  57  75 SW8       29.81F
DAYTON         PTSUNNY   58  56  93 SW9       29.81R
WRIGHT-PAT AFB CLOUDY    62  61  98 SW12      29.80S
DAYTON GENERAL PTSUNNY   62  57  83 S10       29.80S
WILMINGTON     MOSUNNY   60  56  86 SW12      29.82S
$$

OHZ036-037-039>041-045>050-054>059-063>069-073>076-082>088-231600-
  CENTRAL AND SOUTHEAST OHIO

CITY           SKY/WX    TMP DP  RH WIND       PRES   REMARKS
COLUMBUS       CLOUDY    63  56  78 S12       29.81S
OSU AIRPORT    PTSUNNY   62  58  86 SW10      29.80S
BOLTON FIELD   PTSUNNY   63  57  82 SW15      29.82R
RICKENBACK AFB MOSUNNY   61  57  87 S15       29.81S
NEWARK         CLOUDY    62  56  80 SW10      29.81S
MARION         CLOUDY    60  55  83 SW13      29.79S
LANCASTER      MOSUNNY   64  56  75 S9        29.83S
ZANESVILLE     CLOUDY    60  55  83 S9        29.83S
NEW PHILLY     NOT AVBL
$$




USA.gov is the U.S. government's official web portal to all federal, state and local government web resources and services.